Location: Bednik
(45.3500°N, 16.3833°E)
Time: 09:08:22
(UTC+00:00)

Cosmos 1470 Rocket - Pass Details

Date: 08 August 2020
Orbit: 603 x 634 km, 82.5° (Epoch: 21 September)

Event Time Altitude Azimuth Distance (km) Brightness Sun altitude
Exits shadow 19:42:23 23° 129° (SE) 1,322 4.6 -14.2°
Maximum altitude 19:44:06 31° 90° (E) 1,101 4.4 -14.5°
Drops below altitude 10° 19:47:58 10° 29° (NNE) 1,995 6.3 -15.0°
Sets 19:50:23 0° 19° (NNE) 2,900 7.3 -15.3°
